Miscellaneous Local Product
Issued by NWS Hastings, NE

Home | Current Version | Previous Version | Graphics & Text | Print | Product List | Glossary On
Versions: 1 2 3 4 5 6 7 8 9 10 11 12 13 14 15 16 17 18 19 20 21 22 23 24 25 26 27 28 29 30 31 32 33 34 35 36 37 38 39 40 41 42 43 44 45 46 47 48 49 50
000
AXUS43 KGID 171802
MISGRI

GID CWA HOURLY WEATHER ROUNDUP
NATIONAL WEATHER SERVICE HASTINGS NE
1200 PM CST WED JAN 17 2018

NOTE: "FAIR" INDICATES FEW OR NO CLOUDS BELOW 12,000 FEET WITH NO
SIGNIFICANT WEATHER AND/OR OBSTRUCTIONS TO VISIBILITY.

...SOUTH CENTRAL NEBRASKA...

CITY           SKY/WX    TMP DP  RH WIND       PRES   REMARKS
GRAND ISLAND   CLOUDY    24   8  50 SW14      30.40F WCI  12
KEARNEY        CLOUDY    20   8  60 SW14      30.40F WCI   7
HASTINGS       SUNNY     21   6  52 SW13G21   30.42F WCI   9
ORD            FAIR      25   9  50 SW10      30.35F WCI  15
YORK           SUNNY     23   9  54 SW16      30.44F WCI  10
AURORA         SUNNY     24   8  51 SW15      30.42F WCI  11
LEXINGTON      FAIR      26  10  52 SW5       30.36F WCI  20
HOLDREGE       CLOUDY    23  11  58 SW12      30.38F WCI  12
HEBRON         CLOUDY    20   8  58 SW10G16   30.50F WCI   9

...NEBRASKA PANHANDLE...

CITY           SKY/WX    TMP DP  RH WIND       PRES   REMARKS
CHADRON        FAIR      34  15  46 W8        30.32S WCI  27
ALLIANCE       FAIR      29  16  58 CALM      30.28S
SCOTTSBLUFF    FAIR      25  13  60 NW9       30.31S WCI  15
SIDNEY         FAIR      41  19  41 NW13      30.29S

...WESTERN AND NORTH CENTRAL NEBRASKA...

CITY           SKY/WX    TMP DP  RH WIND       PRES   REMARKS
VALENTINE      FAIR      37  15  40 W10       30.26F WCI  30
AINSWORTH      FAIR      33  17  51 W7        30.26F WCI  27
ONEILL         FAIR      29  14  52 SW14      30.29F WCI  19
BROKEN BOW     FAIR      23   9  55 W8        30.33S WCI  14
IMPERIAL       FAIR      30  12  47 CALM      30.31F
NORTH PLATTE   FAIR      25  10  53 CALM      30.33F
MCCOOK         FAIR      25  12  58 SW5       30.36F WCI  19

...EASTERN NEBRASKA...

CITY           SKY/WX    TMP DP  RH WIND       PRES   REMARKS
NORFOLK        CLOUDY    22  10  60 SW17      30.35F WCI   8
SO SIOUX CITY  SUNNY     24  11  57 SW12      30.40F WCI  13
TEKAMAH        SUNNY     23  10  57 S15       30.45F WCI  10
COLUMBUS       SUNNY     29  10  45 SW18      30.42F WCI  16
ALBION         CLOUDY    27  11  52 SW10      30.36F WCI  17
OMAHA EPPLEY   CLOUDY    22   8  55 S10       30.49F WCI  11
MILLARD        CLOUDY    24   6  46 SW10      30.50F WCI  14
LINCOLN        SUNNY     24   6  46 SW15      30.49F WCI  11
NEBRASKA CITY  CLOUDY    20   8  61 SW15      30.51F WCI   6
BEATRICE       CLOUDY    20   9  62 SW12      30.52F WCI   7
FALLS CITY     CLOUDY    21   6  52 SW9       30.57F WCI  11

...NORTHERN KANSAS...

CITY           SKY/WX    TMP DP  RH WIND       PRES   REMARKS
GOODLAND       FAIR      36  12  37 W6        30.31S WCI  31
HILL CITY      SUNNY     25   6  44 S8        30.41F WCI  16
NORTON         CLEAR     27   7  43 S5        30.38F WCI  21
PHILLIPSBURG   SUNNY     27   7  43 S6        30.44F WCI  20
SMITH CENTER     N/A     25   5  42 S10       30.46F WCI  15
BELOIT         SUNNY     25   7  46 S14       30.51F WCI  13
HAYS           SUNNY     28  12  51 SW12      30.45F WCI  18
RUSSELL        SUNNY     25  12  58 S16       30.46F WCI  12
CONCORDIA      CLOUDY    22  10  60 SW10      30.50F WCI  11
SALINA         SUNNY     23  11  60 S10       30.56F WCI  12
TOPEKA         SUNNY     21  10  62 S9        30.62F WCI  11



USA.gov is the U.S. government's official web portal to all federal, state and local government web resources and services.